sat.trackr.live / text

‹ back to catalog

STARLINK-30259

NORAD 57521 · 2023-115A

PAYLOAD ACTIVE UNKNOWN

§ Identity

Operator
Country
US
Launch date
2023-08-08
Launch site
AFWTR
Launch vehicle
Mass (kg)
RCS (m²)

Purposes: comms

External: N2YO · Heavens-Above · Gunter

§ Orbital elements

Epoch: 2026-09-20T05:35:11.524128Z

Period
94.27 min
Inclination
43.0034°
Eccentricity
0.0001546
Mean motion
15.27567311 rev/d
Perigee alt
482.0 km
Apogee alt
484.1 km
Semi-major
6,861.2 km
B*
-1.7550e-5
RAAN
342.9655°
Arg perigee
264.0794°
Mean anomaly
95.9881°
Rev number
17,332

§ Raw data

STARLINK-302591 57521U 23115A   26263.23277227 -.00000745  00000+0 -17550-4 0  99922 57521  43.0034 342.9655 0001546 264.0794  95.9881 15.27567311173322

JSON: /api/v1/satellites/57521 · /tle

For live sub-satellite position, see the globe view (requires WebGL).

§ Visibility from observer

Set your observer location to see the next 7 days of passes ≥ 10°. The values pass through the URL so the page stays shareable.

No JS? Fill the form by hand. The geolocation button needs JavaScript.